| time (UTC) | temp F | wind direction | speed knots | gust knots | rain 1hr in | rain 24hr in | rain mn in | humidity % | barometer mb |
| 20260505051946 | 63 | 196 | 1.7 | 7.8 | 0.00 | 0.00 | 0.00 | 65 | 1013.6 |
| 20260505051415 | 62 | 167 | 1.7 | 5.2 | 0.00 | 0.00 | 0.00 | 66 | 1013.5 |
| 20260505050846 | 61 | 177 | 0.0 | 3.5 | 0.00 | 0.00 | 0.00 | 68 | 1013.5 |
| 20260505050346 | 61 | 275 | 0.0 | 4.3 | 0.00 | 0.00 | 0.00 | 68 | 1013.4 |
| 20260505041544 | 52 | 94 | 0.0 | 1.7 | 0.00 | 0.00 | 0.00 | 93 | 1013.3 |
| 20260505041014 | 52 | 38 | 0.0 | 1.7 | 0.00 | 0.00 | 0.00 | 93 | 1013.3 |
| 20260505040514 | 52 | 60 | 0.0 | 1.7 | 0.00 | 0.00 | 0.00 | 93 | 1013.2 |
| 20260505035943 | 52 | 58 | 1.7 | 1.7 | 0.00 | 0.00 | 0.00 | 93 | 1013.3 |
| 20260505035414 | 52 | 307 | 0.0 | 1.7 | 0.00 | 0.00 | 0.00 | 92 | 1013.1 |
| 20260505034914 | 53 | 47 | 0.0 | 1.7 | 0.00 | 0.00 | 0.00 | 92 | 1013.2 |
| 20260505034343 | 53 | 357 | 0.0 | 1.7 | 0.00 | 0.00 | 0.00 | 92 | 1013.1 |
| 20260505033813 | 53 | 81 | 0.0 | 1.7 | 0.00 | 0.00 | 0.00 | 92 | 1012.9 |
| 20260505033314 | 53 | 45 | 0.0 | 1.7 | 0.00 | 0.00 | 0.00 | 91 | 1013.4 |
| 20260505032742 | 53 | 118 | 0.0 | 0.9 | 0.00 | 0.00 | 0.00 | 91 | 1013.1 |
| 20260505032213 | 54 | 139 | 0.0 | 0.9 | 0.00 | 0.00 | 0.00 | 90 | 1013.3 |
| 20260505031712 | 54 | 133 | 0.0 | 0.9 | 0.00 | 0.00 | 0.00 | 90 | 1013.1 |
| 20260505031144 | 54 | 42 | 0.0 | 1.7 | 0.00 | 0.00 | 0.00 | 88 | 1013.2 |
| 20260505030612 | 55 | 125 | 0.0 | 1.7 | 0.00 | 0.00 | 0.00 | 88 | 1013.2 |
| 20260505030336 | 55 | 27 | 0.0 | 1.7 | 0.00 | 0.00 | 0.00 | 86 | 1013.2 |
| 20260505025806 | 55 | 61 | 0.0 | 1.7 | 0.00 | 0.00 | 0.00 | 85 | 1013.4 |
| 20260505025012 | 55 | 52 | 0.9 | 0.9 | 0.00 | 0.00 | 0.00 | 84 | 1013.3 |
| 20260505024511 | 56 | 36 | 0.0 | 0.0 | 0.00 | 0.00 | 0.00 | 83 | 1013.4 |
| 20260505023941 | 56 | 85 | 0.0 | 1.7 | 0.00 | 0.00 | 0.00 | 82 | 1013.1 |
| 20260505023410 | 57 | 47 | 0.0 | 1.7 | 0.00 | 0.00 | 0.00 | 80 | 1013.1 |
| 20260505022911 | 57 | 33 | 0.9 | 1.7 | 0.00 | 0.00 | 0.00 | 79 | 1013.3 |
| 20260505022343 | 58 | 125 | 0.0 | 1.7 | 0.00 | 0.00 | 0.00 | 77 | 1013.0 |
| 20260505021812 | 59 | 126 | 0.0 | 1.7 | 0.00 | 0.00 | 0.00 | 75 | 1013.4 |
| 20260505021310 | 60 | 72 | 0.0 | 2.6 | 0.00 | 0.00 | 0.00 | 73 | 1013.1 |
| 20260505020753 | 61 | 162 | 1.7 | 2.6 | 0.00 | 0.00 | 0.00 | 72 | 1013.3 |
| 20260505020431 | 60 | 248 | 0.0 | 1.7 | 0.00 | 0.00 | 0.00 | 73 | 1012.9 |
| 20260505015710 | 59 | 98 | 0.0 | 1.7 | 0.00 | 0.00 | 0.00 | 73 | 1013.1 |
| 20260505015401 | 60 | 61 | 0.0 | 1.7 | 0.00 | 0.00 | 0.00 | 72 | 1013.2 |
| 20260505014611 | 60 | 105 | 0.0 | 1.7 | 0.00 | 0.00 | 0.00 | 72 | 1013.0 |
| 20260505014109 | 60 | 122 | 0.0 | 1.7 | 0.00 | 0.00 | 0.00 | 71 | 1012.9 |
| 20260505013540 | 59 | 92 | 0.0 | 1.7 | 0.00 | 0.00 | 0.00 | 74 | 1013.0 |
| 20260505013022 | 59 | 156 | 0.0 | 1.7 | 0.00 | 0.00 | 0.00 | 75 | 1012.9 |
| 20260505012522 | 59 | 143 | 0.0 | 1.7 | 0.00 | 0.00 | 0.00 | 77 | 1013.0 |
| 20260505011939 | 59 | 107 | 0.9 | 1.7 | 0.00 | 0.00 | 0.00 | 77 | 1012.8 |
| 20260505011409 | 59 | 134 | 0.0 | 1.7 | 0.00 | 0.00 | 0.00 | 77 | 1012.7 |
| 20260505010908 | 60 | 89 | 0.0 | 1.7 | 0.00 | 0.00 | 0.00 | 75 | 1012.5 |
| 20260505010338 | 60 | 112 | 1.7 | 1.7 | 0.00 | 0.00 | 0.00 | 75 | 1012.6 |
| 20260505005808 | 61 | 121 | 0.0 | 1.7 | 0.00 | 0.00 | 0.00 | 76 | 1012.5 |
| 20260505005308 | 61 | 319 | 0.0 | 1.7 | 0.00 | 0.00 | 0.00 | 75 | 1012.5 |
| 20260505004739 | 61 | 132 | 0.0 | 1.7 | 0.00 | 0.00 | 0.00 | 76 | 1012.5 |
| 20260505004208 | 61 | 53 | 0.9 | 3.5 | 0.00 | 0.00 | 0.00 | 75 | 1012.6 |
| 20260505003706 | 62 | 129 | 0.0 | 3.5 | 0.00 | 0.00 | 0.00 | 74 | 1012.4 |
| 20260505003137 | 62 | 149 | 0.0 | 2.6 | 0.00 | 0.00 | 0.00 | 74 | 1012.2 |
| 20260505002608 | 62 | 157 | 0.0 | 1.7 | 0.00 | 0.00 | 0.00 | 74 | 1012.4 |
| 20260505002109 | 62 | 147 | 0.9 | 1.7 | 0.00 | 0.00 | 0.00 | 74 | 1012.5 |
| 20260505001537 | 62 | 111 | 0.0 | 1.7 | 0.00 | 0.00 | 0.00 | 73 | 1012.3 |
| 20260505001240 | 62 | 127 | 0.0 | 1.7 | 0.00 | 0.00 | 0.00 | 72 | 1012.6 |
| 20260505000506 | 63 | 165 | 0.0 | 1.7 | 0.00 | 0.00 | 0.00 | 71 | 1012.3 |
| 20260504235936 | 64 | 26 | 0.0 | 1.7 | 0.00 | 0.00 | 0.00 | 69 | 1012.5 |
| 20260504235405 | 64 | 81 | 0.0 | 1.7 | 0.00 | 0.00 | 0.00 | 68 | 1012.4 |
| 20260504234906 | 65 | 109 | 0.9 | 2.6 | 0.00 | 0.00 | 0.00 | 66 | 1012.5 |
| 20260504234552 | 66 | 10 | 0.0 | 2.6 | 0.00 | 0.00 | 0.00 | 64 | 1012.4 |
| 20260504233806 | 66 | 134 | 0.0 | 2.6 | 0.00 | 0.00 | 0.00 | 63 | 1012.5 |
| 20260504233306 | 67 | 254 | 0.0 | 2.6 | 0.00 | 0.00 | 0.00 | 61 | 1012.3 |
| 20260504232735 | 67 | 135 | 0.0 | 2.6 | 0.00 | 0.00 | 0.00 | 60 | 1012.0 |
| 20260504232204 | 67 | 222 | 0.0 | 2.6 | 0.00 | 0.00 | 0.00 | 60 | 1012.0 |
| 20260504231705 | 68 | 142 | 0.0 | 6.1 | 0.00 | 0.00 | 0.00 | 57 | 1012.3 |
| 20260504231400 | 69 | 248 | 0.0 | 6.1 | 0.00 | 0.00 | 0.00 | 56 | 1012.5 |
| 20260504230635 | 69 | 156 | 0.9 | 5.2 | 0.00 | 0.00 | 0.00 | 55 | 1012.3 |
| 20260504230105 | 69 | 173 | 0.0 | 5.2 | 0.00 | 0.00 | 0.00 | 55 | 1012.2 |
| 20260504225534 | 69 | 202 | 3.5 | 4.3 | 0.00 | 0.00 | 0.00 | 53 | 1012.4 |
| 20260504225033 | 69 | 191 | 1.7 | 9.6 | 0.00 | 0.00 | 0.00 | 52 | 1012.0 |
| 20260504224730 | 69 | 177 | 4.3 | 9.6 | 0.00 | 0.00 | 0.00 | 51 | 1012.1 |
| 20260504223935 | 69 | 246 | 1.7 | 7.0 | 0.00 | 0.00 | 0.00 | 51 | 1012.2 |
| 20260504223658 | 69 | 205 | 3.5 | 10.4 | 0.00 | 0.00 | 0.00 | 50 | 1012.2 |
| 20260504222900 | 70 | 232 | 7.0 | 11.3 | 0.00 | 0.00 | 0.00 | 49 | 1012.3 |
| 20260504222332 | 70 | 189 | 6.1 | 13.9 | 0.00 | 0.00 | 0.00 | 47 | 1012.2 |
| 20260504221833 | 71 | 120 | 0.0 | 13.9 | 0.00 | 0.00 | 0.00 | 46 | 1012.2 |
| 20260504221303 | 70 | 244 | 2.6 | 13.9 | 0.00 | 0.00 | 0.00 | 45 | 1012.2 |
| 20260504220734 | 70 | 176 | 5.2 | 11.3 | 0.00 | 0.00 | 0.00 | 45 | 1012.4 |
| 20260504220457 | 71 | 190 | 2.6 | 12.2 | 0.00 | 0.00 | 0.00 | 47 | 1012.2 |
| 20260504215702 | 71 | 185 | 2.6 | 13.0 | 0.00 | 0.00 | 0.00 | 47 | 1012.3 |
| 20260504215131 | 71 | 204 | 5.2 | 13.0 | 0.00 | 0.00 | 0.00 | 46 | 1012.3 |
| 20260504214633 | 72 | 166 | 2.6 | 9.6 | 0.00 | 0.00 | 0.00 | 45 | 1012.3 |
| 20260504214102 | 71 | 219 | 6.1 | 13.0 | 0.00 | 0.00 | 0.00 | 46 | 1012.3 |
| 20260504213531 | 71 | 198 | 7.8 | 13.0 | 0.00 | 0.00 | 0.00 | 46 | 1012.4 |
| 20260504213032 | 71 | 210 | 6.1 | 13.0 | 0.00 | 0.00 | 0.00 | 46 | 1012.4 |
| 20260504211930 | 71 | 326 | 1.7 | 13.9 | 0.00 | 0.00 | 0.00 | 45 | 1012.6 |
| 20260504211430 | 71 | 256 | 3.5 | 13.9 | 0.00 | 0.00 | 0.00 | 44 | 1012.5 |
| 20260504210901 | 72 | 241 | 3.5 | 10.4 | 0.00 | 0.00 | 0.00 | 44 | 1012.5 |
| 20260504210330 | 72 | 244 | 1.7 | 10.4 | 0.00 | 0.00 | 0.00 | 43 | 1012.4 |
| 20260504205832 | 72 | 151 | 1.7 | 10.4 | 0.00 | 0.00 | 0.00 | 45 | 1012.2 |
| 20260504205301 | 73 | 216 | 2.6 | 10.4 | 0.00 | 0.00 | 0.00 | 44 | 1012.2 |
| 20260504204731 | 73 | 177 | 2.6 | 12.2 | 0.00 | 0.00 | 0.00 | 43 | 1012.3 |
| 20260504204229 | 73 | 242 | 4.3 | 12.2 | 0.00 | 0.00 | 0.00 | 42 | 1012.2 |
| 20260504203659 | 74 | 248 | 1.7 | 13.9 | 0.00 | 0.00 | 0.00 | 43 | 1012.3 |
| 20260504203129 | 76 | 346 | 1.7 | 13.9 | 0.00 | 0.00 | 0.00 | 41 | 1012.2 |
| 20260504202628 | 76 | 152 | 4.3 | 11.3 | 0.00 | 0.00 | 0.00 | 40 | 1012.2 |
| 20260504202100 | 75 | 269 | 7.8 | 11.3 | 0.00 | 0.00 | 0.00 | 35 | 1012.4 |
| 20260504201529 | 76 | 175 | 7.8 | 10.4 | 0.00 | 0.00 | 0.00 | 36 | 1012.4 |
| 20260504201035 | 76 | 228 | 7.0 | 7.8 | 0.00 | 0.00 | 0.00 | 36 | 1012.5 |
| 20260504200458 | 74 | 229 | 5.2 | 13.9 | 0.00 | 0.00 | 0.00 | 37 | 1012.7 |
| 20260504195928 | 74 | 234 | 11.3 | 13.9 | 0.00 | 0.00 | 0.00 | 36 | 1012.8 |
| 20260504195429 | 76 | 194 | 9.6 | 12.2 | 0.00 | 0.00 | 0.00 | 35 | 1012.6 |
| 20260504195119 | 76 | 305 | 1.7 | 9.6 | 0.00 | 0.00 | 0.00 | 34 | 1012.7 |
| 20260504194548 | 75 | 167 | 3.5 | 10.4 | 0.00 | 0.00 | 0.00 | 36 | 1012.8 |
| 20260504193828 | 74 | 247 | 7.0 | 10.4 | 0.00 | 0.00 | 0.00 | 36 | 1012.9 |
| 20260504193258 | 75 | 253 | 4.3 | 20.9 | 0.00 | 0.00 | 0.00 | 36 | 1012.9 |
| 20260504192727 | 74 | 209 | 5.2 | 20.9 | 0.00 | 0.00 | 0.00 | 36 | 1013.1 |
| 20260504192228 | 73 | 217 | 10.4 | 12.2 | 0.00 | 0.00 | 0.00 | 37 | 1013.2 |
| 20260504191658 | 76 | 318 | 2.6 | 10.4 | 0.00 | 0.00 | 0.00 | 36 | 1013.3 |
| 20260504191127 | 75 | 241 | 7.0 | 10.4 | 0.00 | 0.00 | 0.00 | 37 | 1013.5 |
| 20260504190627 | 75 | 246 | 0.0 | 6.1 | 0.00 | 0.00 | 0.00 | 37 | 1013.5 |
| 20260504190104 | 74 | 205 | 3.5 | 12.2 | 0.00 | 0.00 | 0.00 | 40 | 1013.5 |
| 20260504185527 | 74 | 59 | 0.0 | 12.2 | 0.00 | 0.00 | 0.00 | 40 | 1013.4 |
| 20260504185029 | 74 | 200 | 1.7 | 12.2 | 0.00 | 0.00 | 0.00 | 39 | 1013.6 |
| 20260504184457 | 74 | 273 | 4.3 | 8.7 | 0.00 | 0.00 | 0.00 | 36 | 1013.8 |
| 20260504184201 | 74 | 243 | 6.1 | 11.3 | 0.00 | 0.00 | 0.00 | 37 | 1013.9 |
| 20260504183426 | 74 | 185 | 3.5 | 11.3 | 0.00 | 0.00 | 0.00 | 36 | 1013.9 |
| 20260504182855 | 73 | 194 | 4.3 | 14.8 | 0.00 | 0.00 | 0.00 | 36 | 1013.8 |
| 20260504182325 | 73 | 230 | 6.1 | 14.8 | 0.00 | 0.00 | 0.00 | 39 | 1013.9 |
| 20260504181825 | 74 | 248 | 0.0 | 13.9 | 0.00 | 0.00 | 0.00 | 35 | 1014.3 |
| 20260504181255 | 73 | 215 | 7.0 | 8.7 | 0.00 | 0.00 | 0.00 | 38 | 1014.4 |
| 20260504180726 | 73 | 267 | 1.7 | 13.0 | 0.00 | 0.00 | 0.00 | 36 | 1014.4 |
| 20260504180226 | 72 | 242 | 6.1 | 13.0 | 0.00 | 0.00 | 0.00 | 40 | 1014.4 |
| 20260504175655 | 73 | 352 | 1.7 | 15.6 | 0.00 | 0.00 | 0.00 | 35 | 1014.4 |
| 20260504175125 | 72 | 352 | 2.6 | 15.6 | 0.00 | 0.00 | 0.00 | 38 | 1014.4 |
| 20260504174624 | 73 | 239 | 2.6 | 11.3 | 0.00 | 0.00 | 0.00 | 36 | 1014.4 |
| 20260504174054 | 72 | 346 | 1.7 | 11.3 | 0.00 | 0.00 | 0.00 | 36 | 1014.4 |
| 20260504173554 | 72 | 282 | 6.1 | 12.2 | 0.00 | 0.00 | 0.00 | 36 | 1014.7 |
| 20260504173026 | 72 | 304 | 6.1 | 12.2 | 0.00 | 0.00 | 0.00 | 37 | 1015.0 |
| 20260504172453 | 71 | 232 | 7.0 | 12.2 | 0.00 | 0.00 | 0.00 | 36 | 1014.8 |
| 20260504171954 | 72 | 298 | 0.0 | 13.0 | 0.00 | 0.00 | 0.00 | 38 | 1014.8 |
| 20260504171423 | 71 | 226 | 5.2 | 13.0 | 0.00 | 0.00 | 0.00 | 37 | 1014.8 |
| 20260504171112 | 71 | 222 | 2.6 | 10.4 | 0.00 | 0.00 | 0.00 | 36 | 1014.8 |
| 20260504170353 | 71 | 251 | 1.7 | 10.4 | 0.00 | 0.00 | 0.00 | 36 | 1015.1 |
| 20260504151149 | 68 | 236 | 3.5 | 5.2 | 0.00 | 0.00 | 0.00 | 40 | 1016.3 |
| 20260504150621 | 67 | 187 | 1.7 | 10.4 | 0.00 | 0.00 | 0.00 | 40 | 1016.4 |
| 20260504141248 | 62 | 196 | 2.6 | 6.1 | 0.00 | 0.00 | 0.00 | 50 | 1016.9 |
| 20260504140748 | 62 | 238 | 4.3 | 7.8 | 0.00 | 0.00 | 0.00 | 50 | 1016.6 |
| 20260504140232 | 61 | 214 | 5.2 | 9.6 | 0.00 | 0.00 | 0.00 | 50 | 1016.8 |
| 20260504130346 | 56 | 218 | 5.2 | 11.3 | 0.00 | 0.00 | 0.00 | 59 | 1017.4 |
| 20260504110612 | 51 | 223 | 1.7 | 5.2 | 0.00 | 0.00 | 0.00 | 70 | 1018.0 |
| 20260504110116 | 51 | 185 | 0.9 | 5.2 | 0.00 | 0.00 | 0.00 | 71 | 1018.0 |
| 20260504100211 | 52 | 231 | 1.7 | 9.6 | 0.00 | 0.00 | 0.00 | 72 | 1018.0 |
| 20260504081537 | 52 | 215 | 1.7 | 4.3 | 0.00 | 0.00 | 0.00 | 69 | 1017.9 |
| 20260504081227 | 52 | 232 | 1.7 | 3.5 | 0.00 | 0.00 | 0.00 | 69 | 1018.0 |
| 20260504080506 | 52 | 212 | 1.7 | 7.0 | 0.00 | 0.00 | 0.00 | 70 | 1018.0 |
| 20260504070117 | 51 | 146 | 3.5 | 3.5 | 0.00 | 0.00 | 0.00 | 72 | 1018.5 |
| 20260504060233 | 48 | 196 | 0.0 | 1.7 | 0.00 | 0.00 | 0.00 | 75 | 1018.2 |